Weather in Kenga

Russia / Tomsk District     57°15′52″N   80°34′21″E
temp.,
°C
wind,
m/s
gust,
m/s
humid.,
%
clouds,
%
prec.,
mm/h
press.,
hPa
HPBL,
m
25 february, thu
thu2501:00−19e41097100 2.9 1010748
04:00−19ene3798100 1.3 1008439
07:00−22ssw3797100 1.5 1009335
10:00−24sw51194100 0.1 1011549
13:00−22sw51090100 0.2 1012701
16:00−21sw5988100 0.1 1013943
19:00−22sw3995100 0.1 1016655
22:00−23sw3896100 0.1 1017562
26 february, fri
fri2601:00−25sw2798100 0.1 1017247
04:00−26wsw269898 0.1 1018204
07:00−28wnw249899 0.1 1021101
10:00−31wnw259686 0.0 1024190
13:00−27w359263 0.0 1027388
16:00−25wsw369295 0.0 1028487
19:00−29sw379697 0.0 1030200
22:00−29sw2698100 0.0 1032155
27 february, sat
sat2701:00−29sw3697100 0.0 1033222
04:00−29sw3697100 0.1 1033234
07:00−30sw3697100 0.1 1034229
10:00−30sw359799 0.1 1034234
13:00−26sw359498 0.1 1034386
16:00−24sw3592100 0.0 1034476
19:00−26ssw2397100 0.0 103444
22:00−29ssw279876 0.0 1034146
28 february, sun
sun2801:00−31ssw259850 0.0 103390
04:00−32s239855 0.0 103243
07:00−32sse239832 0.0 103165
10:00−29sse37967 0.0 1029188
13:00−21se369334 0.0 1026319
16:00−18se4791100 0.0 1023397
19:00−17ese4996100 0.2 1020444
22:00−16e3896100 0.6 1017366
1 march, mon
mon101:00−16e3896100 1.0 1015267
04:00−16ene3796100 0.3 1012261
07:00−15ene4996100 0.7 1011276
10:00−15ene4995100 0.6 1009300
13:00−12ene5994100 1.1 1008389
16:00−11ene51094100 1.1 1006485
19:00−12ne5995100 3.4 1006507
22:00−14ne41095100 1.3 1008518